[[{"header":{"parameterUnit":"m.s-1","parameterCategory":1,"la1":30.2991,"la2":30.254,"lo1":-89.0895,"lo2":-89.0444,"dy":0.0017,"dx":0.0017,"nx":28,"ny":28,"refTime":"2024-04-08T03:00:00:Z","depth":0,"parameterNumber":2,"parameterNumberName":"U-component_of_WINDS"},"data":[0,0,0,0,0,0,0,0,0,0,0,0,0,0,0,0,0,0,0,0,0,0,0,0,0,0,0,0,0,0,0,0,0,0,0,0,0,0,0,0,0,0,0,0,0,0,0,0,0,0,0,0,0,0,0,0,0,0,-2.924,-2.924,0,-2.9252,-2.9252,-2.9252,-2.9227,-2.9226,-2.9226,-2.9225,-2.9236,-2.9237,-2.9238,0,0,0,0,0,0,0,0,0,0,0,0,0,-2.9195,-2.9196,-2.924,-2.924,-2.924,-2.9252,-2.9252,-2.9252,-2.9227,-2.9226,-2.9225,-2.9225,-2.9236,-2.9237,-2.9238,0,0,0,0,0,0,0,0,0,0,0,0,0,-2.9211,-2.9196,-2.924,-2.9229,-2.9229,-2.9252,-2.9252,-2.9252,-2.9228,-2.9226,-2.9225,-2.9224,-2.9235,-2.9237,-2.9238,-2.9272,0,0,-2.9243,-2.9244,0,0,0,0,0,0,0,0,-2.921,-2.9213,-2.9231,-2.923,-2.9229,-2.9237,-2.924,-2.9259,-2.9228,-2.9228,-2.9225,-2.9223,-2.9237,-2.9239,-2.9243,-2.9273,-2.9273,-2.9243,-2.9244,-2.9245,-2.9245,0,0,0,0,0,0,0,-2.9209,-2.9212,-2.9245,-2.9231,-2.923,-2.9224,-2.9225,-2.9244,-2.9239,-2.9228,-2.9226,-2.9228,-2.9237,-2.9242,-2.9244,-2.9274,-2.9243,-2.9245,-2.9246,-2.9246,-2.933,-2.9331,0,0,0,0,0,0,-2.921,-2.9212,-2.9244,-2.9245,-2.9217,-2.9225,-2.9227,-2.9236,-2.9239,-2.9238,-2.9229,-2.9227,-2.924,-2.9242,-2.9244,-2.9282,-2.9245,-2.9246,-2.9247,-2.9329,-2.933,-2.9332,0,0,0,0,0,0,-2.9209,-2.9213,-2.9244,-2.9228,-2.9231,-2.9228,-2.9238,-2.9237,-2.9242,-2.924,-2.9239,-2.9235,-2.9239,-2.9242,-2.9265,-2.9282,-2.9247,-2.9249,-2.9327,-2.9329,-2.9331,-2.9361,0,0,0,0,0,0,-2.9208,-2.9213,-2.9226,-2.9228,-2.9232,-2.9265,-2.9239,-2.9238,-2.9245,-2.9242,-2.9245,-2.9245,-2.9238,-2.9263,-2.9267,-2.9284,-2.925,-2.9326,-2.9328,-2.9331,-2.9358,-2.9363,-2.9368,0,0,0,0,0,-2.9206,-2.9234,-2.9227,-2.9231,-2.9249,-2.9266,-2.9269,-2.9261,-2.9246,-2.9259,-2.9258,-2.9245,-2.9281,-2.9266,-2.927,-2.9288,-2.9325,-2.9328,-2.933,-2.9356,-2.9362,-2.9368,0,0,0,0,0,0,-2.9233,-2.9234,-2.9226,-2.9255,-2.9261,-2.9262,-2.9278,-2.9268,-2.9278,-2.9275,-2.9264,-2.9265,-2.9291,-2.9292,-2.9275,-2.932,-2.93,-2.9304,-2.9318,-2.9324,-2.9329,-2.9327,-2.9251,0,0,0,0,0,-2.9242,-2.9257,-2.9257,-2.9283,-2.9286,-2.9282,-2.9289,-2.9283,-2.9288,-2.929,-2.9291,-2.9296,-2.9308,-2.9317,-2.9328,-2.9359,-2.9359,-2.9373,-2.9378,-2.9382,-2.9385,-2.94,-2.9406,-2.9341,-2.9341,-2.9341,0,0,-2.9261,-2.9264,-2.9274,-2.9288,-2.9292,-2.9307,-2.9284,-2.9301,-2.9311,-2.9293,-2.9314,-2.9315,-2.9321,-2.9348,-2.936,-2.9349,-2.9403,-2.9386,-2.9389,-2.939,-2.9404,-2.941,-2.9415,-2.9343,-2.9343,-2.9343,0,0,-2.9304,-2.9308,-2.9329,-2.9333,-2.9339,-2.9336,-2.9341,-2.9344,-2.9344,-2.9366,-2.9352,-2.9365,-2.9387,-2.9391,-2.9395,-2.944,-2.9428,-2.9444,-2.9469,-2.9484,-2.9489,-2.9493,-2.9507,-2.9513,-2.9447,-2.9447,-2.9447,0,-2.9327,-2.9349,-2.9341,-2.9359,-2.9365,-2.935,-2.937,-2.9375,-2.9384,-2.9389,-2.9378,-2.9404,-2.9407,-2.9434,-2.9445,-2.945,-2.9455,-2.9442,-2.9489,-2.9493,-2.9497,-2.951,-2.9516,-2.9449,-2.9449,-2.9449,-2.9449,0,-2.9376,-2.9392,-2.9408,-2.9417,-2.9426,-2.9445,-2.944,-2.9449,-2.9443,-2.944,-2.9463,-2.9466,-2.9477,-2.9483,-2.9477,-2.9509,-2.9503,-2.9491,-2.947,-2.9505,-2.9517,-2.9523,-2.9452,-2.9451,-2.945,-2.945,0,0,-2.9434,-2.9439,-2.9445,-2.9449,-2.9454,-2.9466,-2.9485,-2.9496,-2.9503,-2.9511,-2.9525,-2.9544,-2.9533,-2.9538,-2.9532,-2.9546,-2.9579,-2.9532,-2.9532,-2.9539,-2.9613,-2.9621,-2.9627,-2.9572,-2.9573,-2.9574,-2.9612,0,-2.9474,-2.9506,-2.95,-2.953,-2.9544,-2.953,-2.9546,-2.9551,-2.955,-2.9561,-2.956,-2.9573,-2.9558,-2.9561,-2.9573,-2.9572,-2.9593,-2.957,-2.9584,-2.9585,-2.9581,-2.9634,-2.9642,-2.9678,-2.9617,-2.9618,-2.9619,0,-2.9525,-2.9534,-2.9566,-2.9569,-2.9575,-2.9589,-2.9598,-2.961,-2.9615,-2.9613,-2.962,-2.9611,-2.9629,-2.961,-2.9634,-2.9618,-2.9623,-2.9624,-2.9625,-2.9624,-2.9602,-2.9633,-2.969,-2.9695,-2.9626,-2.9626,-2.9625,0,-2.9562,-2.9583,-2.9604,-2.9608,-2.9612,-2.9622,-2.9625,-2.9629,-2.9636,-2.9644,-2.9648,-2.9659,-2.9664,-2.9672,-2.9667,-2.9654,-2.9691,-2.9672,-2.9689,-2.9689,-2.9696,-2.9695,-2.9753,-2.9703,-2.9703,-2.9703,-2.9703,0,-2.9607,-2.9626,-2.962,-2.9633,-2.9655,-2.9648,-2.9669,-2.967,-2.9674,-2.9686,-2.9675,-2.9687,-2.968,-2.9691,-2.9687,-2.9707,-2.971,-2.9708,-2.9706,-2.9708,-2.9708,-2.971,-2.9707,-2.9704,-2.9704,-2.9704,-2.9704,0,-2.9651,-2.9648,-2.967,-2.9672,-2.9673,-2.9689,-2.9691,-2.9703,-2.9701,-2.9717,-2.972,-2.9718,-2.973,-2.9726,-2.974,-2.9737,-2.9762,-2.9758,-2.976,-2.9758,-2.9775,-2.9773,-2.9834,-2.9841,-2.9789,-2.979,-2.979,0,-2.9678,-2.9693,-2.9697,-2.9705,-2.9708,-2.972,-2.9727,-2.9721,-2.9729,-2.9736,-2.9747,-2.9759,-2.9767,-2.9788,-2.9787,-2.9798,-2.9793,-2.9814,-2.9794,-2.9795,-2.9791,-2.9789,-2.979,-2.9817,-2.9818,-2.9818,-2.9819,0,-2.9727,-2.9725,-2.9735,-2.9745,-2.9754,-2.9762,-2.9768,-2.9775,-2.9769,-2.9779,-2.9791,-2.9798,-2.9812,-2.9824,-2.9833,-2.9835,-2.9825,-2.9825,-2.9829,-2.983,-2.983,-2.9828,-2.9768,-2.9823,-2.9823,-2.9822,-2.9822,-2.9822,-2.9763,-2.9775,-2.9779,-2.9791,-2.9795,-2.9802,-2.9813,-2.9813,-2.9823,-2.9834,-2.983,-2.9844,-2.9849,-2.9861,-2.9864,-2.9875,-2.9867,-2.9874,-2.9875,-2.9876,-2.9877,-2.983,-2.9877,-2.9877,-2.9877,-2.9877,-2.9877,0,-2.9809,-2.9812,-2.9823,-2.9832,-2.9841,-2.9833,-2.9839,-2.9848,-2.986,-2.9866,-2.9875,-2.9889,-2.99,-2.9901,-2.9911,-2.992,-2.9915,-2.9922,-2.9921,-2.9921,-2.9885,-2.9879,-2.9925,-2.9925,-2.9925,-2.9925,-2.9925,-2.9925,-2.9835,-2.9854,-2.9852,-2.9874,-2.9876,-2.989,-2.9894,-2.99,-2.9904,-2.992,-2.993,-2.993,-2.9933,-2.9944,-2.9953,-2.9953,-2.9956,-2.9965,-2.9963,-2.9929,-2.9924,-2.9919,-2.9914,-2.9966,-2.9966,-2.9997,-2.9998,-2.9998]},{"header":{"parameterUnit":"m.s-1","parameterCategory":1,"la1":30.2991,"la2":30.254,"lo1":-89.0895,"lo2":-89.0444,"dy":0.0017,"dx":0.0017,"nx":28,"ny":28,"refTime":"2024-04-08T03:00:00:Z","depth":0,"parameterNumber":3,"parameterNumberName":"V-component_of_WINDS"},"data":[0,0,0,0,0,0,0,0,0,0,0,0,0,0,0,0,0,0,0,0,0,0,0,0,0,0,0,0,0,0,0,0,0,0,0,0,0,0,0,0,0,0,0,0,0,0,0,0,0,0,0,0,0,0,0,0,0,0,3.9676,3.9678,0,3.9894,3.9896,3.9898,3.9928,3.9926,3.9924,3.9923,4.0133,4.014,4.0147,0,0,0,0,0,0,0,0,0,0,0,0,0,3.9274,3.9281,3.9675,3.9678,3.9681,3.9893,3.9896,3.9899,3.9929,3.9926,3.9924,3.9922,4.013,4.0139,4.0148,0,0,0,0,0,0,0,0,0,0,0,0,0,3.9465,3.9283,3.9675,3.9722,3.9728,3.9893,3.9896,3.99,3.9929,3.9926,3.9923,3.992,4.0127,4.0138,4.0149,4.0279,0,0,4.0184,4.0188,0,0,0,0,0,0,0,0,3.9454,3.948,3.9712,3.9719,3.9726,3.9881,3.9832,4.0026,3.993,3.9852,3.9922,3.9919,4.0051,4.0068,4.0115,4.0288,4.0297,4.0185,4.0191,4.0196,4.0199,0,0,0,0,0,0,0,3.9441,3.9471,3.9761,3.9715,3.9724,3.9728,3.9752,3.9869,3.9965,3.9859,3.9862,3.9888,4.0054,4.0104,4.012,4.03,4.0184,4.0194,4.0201,4.0205,4.0592,4.0595,0,0,0,0,0,0,3.9421,3.9459,3.9754,3.9768,3.9581,3.9738,3.9764,3.9834,3.9964,3.9981,3.989,3.9888,4.0086,4.0107,4.0128,4.0289,4.0196,4.0207,4.0213,4.0588,4.0592,4.0596,0,0,0,0,0,0,3.9412,3.9447,3.9746,3.9615,3.9653,3.9748,3.9826,3.984,3.9891,3.9988,4.0004,3.9925,4.0085,4.0112,4.0242,4.0296,4.0212,4.0222,4.0584,4.0589,4.0594,4.0611,0,0,0,0,0,0,3.9401,3.9444,3.9496,3.9616,3.966,3.986,3.9829,3.9846,3.9911,3.9911,4.0025,4.004,4.0085,4.0225,4.0253,4.031,4.0231,4.0579,4.0586,4.0593,4.0606,4.0616,4.0625,0,0,0,0,0,3.9386,3.9489,3.9499,3.9534,3.9728,3.9863,3.9888,3.994,3.9916,3.9968,4.003,4.0037,4.0286,4.0238,4.027,4.0331,4.0576,4.0584,4.0592,4.0602,4.0614,4.0625,0,0,0,0,0,0,3.9368,3.9505,3.9518,3.9663,3.9752,3.9868,3.9935,3.9952,4.0045,4.0041,4.0098,4.0123,4.0251,4.0304,4.0248,4.0463,4.0428,4.0443,4.0425,4.0437,4.0447,4.0431,4.024,0,0,0,0,0,3.9382,3.9484,3.9597,3.9714,3.9758,3.9839,3.9899,3.9933,4.0025,4.0061,4.0133,4.0219,4.0317,4.038,4.0475,4.0614,4.0638,4.0671,4.0681,4.0688,4.07,4.0778,4.0794,4.0622,4.0622,4.0622,0,0,3.941,3.9498,3.9557,3.9713,3.9785,3.9886,3.987,3.9977,4.0052,4.0076,4.0205,4.0261,4.036,4.0496,4.0559,4.0544,4.0753,4.0698,4.0703,4.0711,4.0787,4.0804,4.0818,4.0628,4.0627,4.0626,0,0,3.9513,3.959,3.9698,3.9772,3.9884,3.9937,3.9963,4.0078,4.0117,4.0249,4.027,4.0357,4.0524,4.0595,4.0652,4.0785,4.0794,4.0813,4.0863,4.0938,4.0951,4.0964,4.1011,4.1027,4.0825,4.0825,4.0825,0,3.9532,3.969,3.9749,3.9858,3.9924,3.9956,4.0064,4.0131,4.0266,4.031,4.0293,4.0505,4.0574,4.0727,4.076,4.0805,4.0834,4.0801,4.0945,4.0958,4.097,4.1016,4.1034,4.0827,4.0826,4.0826,4.0826,0,3.9709,3.9817,3.9889,4.0026,4.0101,4.0207,4.028,4.0348,4.0375,4.0429,4.0562,4.0646,4.076,4.0798,4.0823,4.0955,4.0943,4.0934,4.09,4.0988,4.1032,4.105,4.0829,4.0828,4.0828,4.0828,0,0,3.9805,3.9975,4.0001,4.0064,4.0191,4.0274,4.0381,4.0497,4.0555,4.0646,4.0737,4.0879,4.0873,4.0939,4.0972,4.1038,4.1138,4.1022,4.1025,4.1041,4.1288,4.1294,4.1314,4.1145,4.1149,4.1152,4.128,0,3.9923,4.0122,4.0179,4.0344,4.0445,4.0477,4.0571,4.0657,4.071,4.0801,4.0858,4.0959,4.0943,4.0983,4.105,4.1112,4.1188,4.1103,4.1227,4.1231,4.1202,4.1337,4.1343,4.1461,4.1298,4.1301,4.1303,0,4.0088,4.019,4.0366,4.0483,4.0527,4.0611,4.0722,4.0809,4.0906,4.0941,4.1016,4.1044,4.1154,4.1115,4.1266,4.1207,4.1261,4.1299,4.1305,4.1318,4.1272,4.1354,4.1499,4.1517,4.133,4.1328,4.1326,0,4.0142,4.0322,4.0452,4.0504,4.0642,4.0701,4.076,4.0855,4.0922,4.1018,4.1061,4.1167,4.1224,4.1304,4.1359,4.1325,4.1506,4.1471,4.1536,4.1534,4.1572,4.1569,4.1728,4.1606,4.1606,4.1606,4.1605,0,4.0268,4.0375,4.0478,4.0558,4.0678,4.0742,4.0857,4.0917,4.1002,4.1092,4.1124,4.1206,4.1274,4.1365,4.1408,4.1527,4.1552,4.1581,4.1591,4.1579,4.1575,4.1615,4.1608,4.161,4.1609,4.1608,4.1608,0,4.0348,4.0422,4.0566,4.0687,4.072,4.0803,4.0905,4.0982,4.1038,4.1151,4.118,4.1267,4.1375,4.1439,4.1574,4.1603,4.1735,4.1741,4.1704,4.1709,4.1771,4.1764,4.1961,4.199,4.1848,4.1849,4.1851,0,4.0425,4.0509,4.064,4.0706,4.0768,4.0871,4.0941,4.1005,4.1076,4.1195,4.1257,4.1369,4.1462,4.1633,4.1705,4.1809,4.1818,4.188,4.1833,4.1819,4.1819,4.1814,4.1823,4.1887,4.1889,4.189,4.189,0,4.0552,4.0585,4.0687,4.0803,4.0887,4.0979,4.107,4.112,4.12,4.1277,4.1391,4.1464,4.1605,4.1715,4.1826,4.1882,4.1899,4.1905,4.1926,4.1914,4.1889,4.1904,4.1726,4.19,4.1899,4.1898,4.1898,4.1897,4.0633,4.071,4.0816,4.0929,4.1006,4.1091,4.1171,4.1238,4.1337,4.146,4.1491,4.1611,4.1706,4.1857,4.1917,4.2009,4.1998,4.2028,4.2036,4.2042,4.2045,4.1875,4.2029,4.2029,4.2029,4.2029,4.2029,0,4.0763,4.0834,4.0937,4.1067,4.1155,4.1169,4.1271,4.1343,4.145,4.1539,4.1632,4.1763,4.1871,4.1953,4.2062,4.212,4.213,4.2146,4.2143,4.2155,4.2048,4.2019,4.2136,4.2136,4.2136,4.2136,4.2136,4.2136,4.0841,4.0973,4.1019,4.1188,4.1257,4.1379,4.1436,4.1514,4.1587,4.1734,4.1826,4.188,4.1966,4.2082,4.2181,4.2202,4.224,4.2255,4.2277,4.2174,4.2163,4.2152,4.2126,4.2263,4.2263,4.2377,4.2378,4.2379]}]]